カタログに戻る

SL-8 R/B

運用中LEO
NORAD 4370·ROCKET BODY·🇷🇺 Russia

打ち上げ Apr 11, 1970 から Plesetsk Cosmodrome

Loading…

次のパス (今後24時間)

TLE

最新Source: Space-Track

元期: Sep 14, 2026, 13:56 UTC

1 04370U 70028B   26257.58093808  .00000268  00000-0  57625-4 0  9999
2 04370  74.0374 118.9178 0015510 255.5854 104.3593 14.63467753504541

AllMySatでSL-8 R/Bをリアルタイム追跡

Download on the App Store